EUTELSAT 10B

Last updated on Tue Sep 16 2025 00:02:50 GMT+0000 (Coordinated Universal Time)

1 54259U 22157A 25258.63065663 .00000051 00000+0 00000+0 0 9993 2 54259 0.0552 102.2737 0001342 5.2445 124.3245 1.00270981 10269
UTC large
Height (km)
Speed (km/s)
/
Latitude / Longitude
Inclination (degrees)
Orbital Period (minutes)
Azimuth
Elevation
Range (km)
Doppler Factor

Next 0 passes for location: London (51.5072 / 0.1276)

Sorry there are no passes over London.